Temperature
20 20 20 19 19 20 19 19 19 19 19 19 19 19 19 19 19 19 19 18 18 18 18 18 18 18 18 18 18 18 18 18 18 18 18 18 18 18 18 18 17 17 17
20 20 19 19 19 19 19 19 19 19 19 19 19 19 19 19 18 18 18 18 18 18 18 18 18 18 18 18 18 18 18 18 18 18 18 18 18 18 18 17 17 17 17
20 20 19 19 19 19 19 19 19 19 19 19 18 18 18 18 18 18 18 18 18 18 18 18 18 18 18 18 18 18 18 17 17 17 17 17 17 17 17 17 17 17 16
20 20 19 19 19 19 19 18 18 18 18 18 18 18 18 18 18 18 18 18 18 18 17 17 17 17 17 17 17 17 17 17 17 17 17 17 17 17 17 16 16 16 16
20 19 19 19 19 18 18 18 18 18 18 18 18 18 18 18 18 18 17 17 17 17 17 17 17 17 17 17 17 17 17 17 16 16 16 16 16 16 16 16 16 16 16
19 19 19 19 18 18 18 18 18 18 18 18 18 17 17 17 17 17 17 17 17 17 17 17 17 16 17 17 17 16 16 16 16 16 16 16 16 16 16 15 15 15 15
19 19 18 18 18 18 18 18 18 17 17 17 17 17 17 17 17 17 17 17 17 16 16 16 16 16 16 16 16 16 16 16 16 16 15 16 15 15 15 15 15 15 15
18 18 18 18 18 17 17 17 17 17 17 17 17 17 17 17 17 17 17 16 16 16 16 16 16 16 16 16 16 15 15 15 15 15 15 15 15 15 15 15 14 14 14
18 18 18 17 17 17 17 17 17 17 17 17 17 17 16 16 16 16 16 16 16 16 16 15 15 15 15 15 15 15 15 15 15 15 15 15 15 14 14 14 14 14 13
17 17 17 17 17 17 17 17 17 16 16 16 16 16 16 16 16 16 16 16 16 15 15 15 15 15 15 15 15 14 14 14 14 14 14 14 14 14 14 14 13 13 13
17 17 17 17 17 17 16 16 16 16 16 16 16 16 16 16 16 16 15 15 15 15 15 15 15 15 15 14 14 14 14 14 14 14 14 14 13 13 13 13 13 13 13
16 16 16 16 16 16 16 16 16 16 16 16 15 15 15 15 15 15 15 15 15 14 14 14 14 14 14 14 14 14 14 13 13 13 13 13 13 13 13 13 13 13 13
16 16 16 16 16 16 16 15 15 15 15 15 15 15 15 15 15 15 15 14 14 14 14 14 14 14 14 13 13 13 13 13 13 12 12 12 12 12 12 12 12 12 12
15 15 15 15 15 15 15 15 15 15 15 15 15 15 15 14 14 14 14 14 14 13 13 13 13 13 13 13 13 13 13 12 12 12 12 12 12 12 12 12 12 12 12
14 15 15 15 14 14 14 14 14 14 14 14 14 14 14 14 14 14 14 14 13 13 13 13 13 13 12 12 12 12 12 12 12 12 12 12 12 11 11 11 11 11 11
14 14 14 14 14 14 14 14 14 14 14 14 14 14 14 14 13 13 13 13 13 13 12 12 12 12 12 12 12 12 12 11 11 11 11 11 11 11 11 11 11 11 11
13 13 13 13 13 14 14 14 13 13 13 13 13 13 13 13 13 13 13 12 12 12 12 12 11 11 11 11 11 11 11 11 11 11 11 10 10 10 10 10 10 10 10
13 13 13 13 13 13 13 13 13 13 13 13 13 13 13 13 13 12 12 12 12 11 11 11 11 11 11 11 10 10 10 10 10 10 10 10 10 10 10 10 10 10 10
13 13 13 13 13 13 13 13 13 13 13 13 12 12 12 12 12 12 12 11 11 11 11 11 10 10 10 10 10 10 10 9 9 9 9 9 9 9 9 9 9 9 9
12 12 12 12 12 13 12 12 12 12 12 12 12 12 12 12 11 11 11 11 11 10 10 10 10 10 10 10 9 9 9 9 9 9 9 9 9 9 9 9 9 9 9
12 12 12 12 12 12 12 12 12 12 12 12 11 11 11 11 11 11 11 11 10 10 10 10 10 9 9 9 9 9 9 9 9 9 9 8 8 8 8 8 8 8 8
12 12 12 12 12 12 12 12 12 12 12 11 11 11 11 11 11 10 10 10 10 10 10 10 9 9 9 9 9 9 8 8 8 8 8 8 8 8 8 8 8 8 8
12 12 12 12 12 12 12 12 12 11 11 11 11 11 11 10 10 10 10 10 9 9 9 9 9 9 9 9 8 8 8 8 8 8 8 8 7 7 7 7 8 8 8
12 12 12 12 12 12 11 11 11 11 11 11 10 10 10 10 10 10 10 9 9 9 9 9 9 8 8 8 8 8 8 8 8 8 8 7 7 7 7 7 7 7 7
12 12 12 11 11 11 11 11 11 11 11 10 10 10 10 10 9 9 9 9 9 9 8 8 8 8 8 8 8 8 7 7 7 7 7 7 7 7 7 7 7 7 7
12 11 11 11 11 11 11 11 10 10 10 10 10 10 9 9 9 9 9 9 8 8 8 8 8 8 7 7 7 7 7 7 7 7 7 6 6 6 6 6 6 6 7
Wind_Speed
9 8 6 7 6 6 5 4 4 4 4 4 4 5 5 5 6 5 6 5 5 5 6 5 5 5 4 4 4 4 4 3 4 4 3 2 3 2 3 5 6 7 8
8 7 7 6 6 6 6 5 4 4 4 4 4 4 5 6 5 6 6 6 6 5 5 4 4 5 5 4 4 5 4 4 4 5 4 3 4 4 4 4 4 5 5
8 8 7 7 6 6 5 5 4 4 4 4 4 4 4 5 5 5 5 4 4 4 3 3 4 4 4 4 4 5 5 5 4 4 5 3 3 3 3 3 3 2 4
6 7 7 7 6 6 5 5 5 5 4 4 4 4 4 4 3 3 3 4 4 4 3 3 3 4 4 5 5 5 5 4 4 4 4 3 3 3 2 3 3 3 3
4 5 6 6 5 5 5 5 5 5 5 4 4 4 4 4 3 3 4 5 4 4 3 3 3 4 4 4 4 3 3 4 4 4 4 3 3 2 2 3 3 3 3
3 3 3 4 5 5 5 4 4 4 4 4 4 3 3 4 3 3 3 3 3 4 3 3 4 4 5 5 5 5 4 5 5 4 4 4 4 3 2 3 3 3 3
1 2 3 3 4 4 4 4 4 4 3 3 3 3 2 2 2 1 2 3 3 3 3 3 4 4 2 3 3 5 5 6 6 5 5 5 5 4 4 4 3 3 3
2 2 2 2 3 3 3 3 3 2 3 3 2 2 2 3 3 2 2 3 3 3 3 4 4 3 3 2 3 4 4 4 5 5 5 5 4 3 4 4 4 3 3
1 1 2 2 3 3 3 3 3 3 3 4 3 3 2 2 4 4 3 3 3 3 4 3 3 3 3 3 3 3 3 4 4 3 4 4 4 4 3 2 3 3 4
1 1 1 2 3 3 3 2 2 3 4 3 3 3 3 3 5 5 4 3 3 3 3 2 1 2 2 2 2 3 4 4 3 3 3 3 3 4 4 4 4 4 4
1 1 1 1 2 3 2 2 2 2 3 3 3 3 3 4 6 7 6 3 3 3 3 2 2 2 1 2 3 4 5 4 3 4 3 2 2 2 2 2 3 3 4
0 1 1 1 2 2 2 2 2 2 3 3 4 4 3 3 5 7 8 6 4 3 2 1 1 1 2 3 3 4 5 4 3 3 2 2 2 2 2 2 3 3 3
1 0 1 1 1 1 1 2 2 2 3 3 3 3 2 2 3 5 6 5 3 2 2 0 1 3 3 4 5 6 4 3 2 2 3 2 2 2 2 2 2 2 4
0 0 1 1 1 1 1 1 1 1 1 1 2 1 1 2 2 2 1 1 1 1 1 0 2 4 4 4 3 3 3 3 3 2 2 2 2 2 2 2 2 2 3
1 1 1 1 2 2 1 0 0 1 1 2 1 1 1 1 2 3 2 1 0 1 0 1 1 1 1 2 1 1 1 1 1 2 2 2 2 2 2 2 2 3 3
1 1 2 1 1 2 3 2 5 3 3 3 2 1 1 3 5 5 4 3 2 1 1 2 2 2 2 2 1 1 1 1 1 2 2 2 2 2 2 2 2 2 3
1 2 2 2 1 1 1 2 2 2 2 2 1 1 2 3 4 3 2 1 1 1 1 3 2 2 2 2 1 1 1 1 1 2 2 3 3 3 3 3 3 3 3
2 2 2 2 1 1 1 1 2 2 1 1 0 2 3 3 3 3 2 1 1 2 3 3 2 1 1 1 1 1 1 1 1 2 2 3 3 3 4 3 3 4 4
2 2 2 1 1 1 1 1 1 1 1 1 1 1 2 3 2 3 2 2 3 2 2 1 1 1 1 1 1 1 2 2 1 2 2 3 3 3 4 4 4 5 5
2 2 2 1 1 0 0 0 1 1 0 0 1 1 2 1 1 2 3 3 3 2 2 1 1 2 1 1 1 1 2 2 2 2 2 3 3 3 4 4 4 4 4
2 2 3 1 1 1 1 1 1 1 0 0 0 1 2 2 2 2 2 2 2 3 2 1 1 2 2 1 1 2 2 2 2 2 2 3 3 4 4 4 4 4 4
1 2 1 1 1 1 1 1 1 1 1 1 2 2 3 2 2 2 1 1 1 2 1 1 2 2 1 1 1 2 2 2 2 2 2 3 4 4 4 4 4 4 3
2 2 2 1 1 1 1 2 1 0 1 1 0 0 1 0 1 0 0 0 0 1 1 1 1 2 2 1 1 1 2 3 3 3 3 4 4 4 4 4 4 4 4
1 1 1 1 1 1 0 0 1 1 1 1 1 1 0 0 0 1 1 1 1 1 1 1 1 2 2 1 2 2 3 4 4 4 5 5 5 4 4 4 4 4 4
1 1 1 1 1 1 2 2 2 2 2 2 1 1 1 1 0 1 1 2 2 2 1 1 0 0 1 2 2 3 4 4 4 5 4 4 5 5 5 5 5 5 4
2 2 2 2 1 1 1 1 1 1 1 1 1 1 1 1 1 2 2 2 2 2 2 2 2 2 2 2 2 3 4 4 5 6 4 4 4 4 4 4 5 4 4
Wind_Direction
183 187 192 189 195 202 208 210 204 213 206 193 195 196 203 207 206 211 223 223 222 228 233 231 233 241 252 257 255 253 245 232 243 261 258 231 223 224 195 207 200 192 205
176 179 188 188 189 197 203 206 206 203 206 194 194 204 216 216 208 212 222 224 224 225 227 231 238 244 248 258 262 261 253 236 231 246 254 240 222 213 206 219 216 213 210
177 181 186 194 194 195 196 194 200 204 204 202 197 210 222 226 218 215 217 227 227 221 220 228 240 246 249 254 253 261 264 258 239 238 248 246 234 223 206 225 233 227 241
176 183 186 192 195 195 196 195 195 202 203 206 208 209 216 224 224 219 218 228 231 228 224 226 242 248 247 247 246 253 262 269 263 257 254 255 242 227 200 213 232 231 246
168 183 187 187 191 197 200 199 198 200 210 209 215 213 205 209 221 225 228 229 230 231 226 215 230 235 231 238 248 249 256 263 258 252 248 255 252 224 221 226 235 235 242
169 169 166 184 190 194 197 200 205 204 208 209 209 209 217 221 198 206 223 231 233 232 234 228 232 231 228 221 231 239 240 242 254 254 245 239 238 227 228 244 246 246 250
155 158 166 183 192 197 205 200 208 208 200 204 203 205 205 210 214 206 226 223 233 240 241 247 251 256 250 245 235 231 242 243 236 244 249 245 242 229 223 237 244 253 256
160 160 169 186 190 194 198 198 192 185 184 199 211 196 196 218 197 198 233 235 240 239 239 236 235 254 271 275 271 251 248 256 251 241 247 250 244 229 223 232 241 247 256
179 167 182 190 199 196 191 188 186 191 192 201 197 201 207 194 180 177 191 242 235 243 246 248 237 233 260 267 265 262 264 275 290 284 260 247 228 217 218 237 245 248 265
234 218 224 211 199 195 194 195 202 205 208 211 195 200 198 193 183 183 196 237 241 241 234 225 213 217 249 283 262 265 264 270 281 285 276 262 234 222 212 219 236 249 262
277 244 230 225 202 189 186 188 189 206 202 209 205 216 213 199 181 185 196 222 246 249 244 227 180 152 188 251 251 253 259 272 278 264 254 243 230 224 216 223 236 243 251
293 202 195 214 239 198 164 183 193 206 215 214 218 225 224 199 187 195 200 218 259 265 256 185 158 196 265 270 254 245 259 270 265 261 254 251 247 243 240 230 232 234 242
332 298 224 221 198 154 176 188 193 200 231 228 222 224 207 178 169 181 194 212 242 264 290 144 196 235 261 263 246 244 243 246 247 253 255 249 238 236 238 236 244 253 253
236 264 218 194 195 169 200 209 209 197 225 238 228 225 195 121 101 112 165 193 216 225 299 287 239 245 254 254 255 239 234 236 233 246 254 260 253 232 234 242 254 254 262
250 256 244 220 209 183 161 128 146 79 203 213 242 203 184 175 163 156 157 172 195 94 58 272 267 258 244 245 242 251 257 263 266 267 270 268 267 257 257 250 247 256 266
248 257 257 247 222 184 162 123 65 73 97 112 109 106 93 121 150 151 147 146 166 160 171 248 258 266 269 269 278 276 265 284 294 291 291 289 281 270 270 272 272 269 271
245 259 270 275 256 216 179 167 153 94 86 75 89 142 161 156 148 148 144 119 234 185 213 247 244 248 271 287 307 322 314 314 316 315 315 308 303 298 297 294 289 284 278
241 241 231 227 239 224 205 200 186 180 158 141 166 178 189 194 192 187 153 94 240 208 224 236 245 265 277 302 315 313 315 311 306 300 304 309 310 304 298 295 293 287 281
242 248 239 238 238 214 209 201 177 153 155 153 157 151 190 205 212 224 168 210 242 252 262 271 271 281 311 323 314 312 305 297 301 299 299 301 300 298 294 289 288 290 283
220 202 216 233 271 55 139 187 155 109 14 39 96 99 120 156 195 205 198 213 234 249 254 252 261 273 282 285 286 284 286 285 283 282 293 294 294 292 291 291 291 289 279
207 178 168 173 206 213 220 218 177 154 209 204 130 129 147 198 231 232 218 210 228 242 242 249 252 245 244 249 263 273 283 286 289 295 300 298 299 296 291 288 288 286 286
188 180 187 203 188 166 224 232 214 183 215 176 140 155 181 224 249 261 262 214 235 253 266 266 278 280 270 261 273 276 280 280 276 277 284 285 283 284 289 286 286 288 291
224 195 172 169 185 196 230 255 262 202 120 109 87 111 136 247 285 301 321 184 316 297 290 284 290 313 346 360 351 348 318 307 293 282 276 275 277 277 280 283 285 290 296
180 159 147 141 165 207 143 82 53 76 108 103 97 84 57 39 6 22 4 358 354 339 4 30 26 6 3 20 31 18 349 335 321 299 286 279 277 278 283 288 288 286 291
118 100 93 100 91 85 81 76 71 59 59 61 61 47 9 357 47 70 44 31 20 9 4 349 60 23 357 17 19 359 357 359 343 332 309 287 285 288 290 290 291 296 296
70 80 88 99 107 107 100 84 69 59 57 69 75 56 26 8 28 67 57 41 14 5 2 8 40 39 28 34 26 20 17 6 352 341 325 304 299 293 291 290 292 291 299
Height
1492 1494 1496 1498 1500 1502 1504 1506 1507 1509 1511 1512 1513 1514 1516 1517 1518 1519 1520 1521 1521 1522 1523 1524 1525 1526 1526 1526 1527 1527 1527 1527 1526 1525 1526 1526 1526 1526 1525 1526 1525 1525 1525
1490 1492 1493 1495 1497 1499 1500 1502 1504 1505 1507 1509 1510 1511 1512 1514 1514 1515 1516 1517 1518 1519 1520 1520 1521 1522 1522 1523 1523 1523 1523 1524 1523 1522 1521 1522 1522 1522 1522 1522 1522 1521 1521
1487 1489 1491 1492 1494 1495 1497 1498 1500 1502 1504 1505 1507 1508 1509 1510 1511 1512 1513 1514 1514 1515 1516 1517 1517 1518 1518 1518 1519 1519 1519 1519 1519 1518 1517 1518 1518 1518 1517 1518 1518 1518 1518
1485 1486 1487 1489 1491 1492 1494 1496 1497 1499 1501 1502 1503 1505 1506 1507 1508 1508 1509 1510 1511 1512 1512 1513 1514 1514 1514 1515 1514 1515 1515 1515 1514 1514 1513 1513 1513 1513 1514 1513 1513 1513 1514
1482 1484 1485 1486 1488 1490 1491 1493 1494 1496 1497 1499 1500 1502 1502 1503 1504 1504 1505 1506 1507 1507 1508 1509 1509 1510 1510 1510 1510 1510 1510 1510 1510 1509 1509 1509 1509 1509 1509 1509 1510 1509 1509
1480 1481 1482 1484 1485 1487 1488 1490 1491 1492 1494 1495 1496 1498 1499 1499 1500 1501 1502 1503 1503 1504 1504 1505 1505 1506 1506 1506 1506 1506 1506 1506 1505 1505 1505 1504 1504 1505 1505 1505 1506 1506 1505
1478 1479 1480 1482 1483 1484 1486 1487 1488 1489 1490 1491 1493 1494 1495 1496 1497 1498 1498 1499 1499 1500 1501 1501 1502 1502 1502 1501 1501 1501 1501 1501 1501 1501 1500 1500 1500 1500 1501 1501 1501 1501 1501
1476 1477 1478 1479 1480 1482 1483 1483 1484 1485 1486 1487 1488 1490 1491 1492 1493 1494 1494 1495 1496 1496 1497 1497 1498 1497 1497 1497 1497 1496 1496 1497 1497 1496 1496 1496 1496 1496 1496 1497 1497 1497 1497
1474 1474 1475 1476 1477 1478 1479 1480 1481 1482 1483 1484 1485 1485 1486 1487 1489 1490 1491 1491 1491 1492 1493 1493 1493 1493 1493 1493 1493 1492 1491 1492 1492 1492 1492 1492 1492 1492 1492 1492 1492 1492 1491
1471 1472 1473 1474 1474 1475 1476 1477 1478 1479 1480 1481 1481 1482 1483 1484 1484 1486 1487 1487 1488 1488 1488 1489 1489 1489 1489 1489 1489 1488 1487 1487 1487 1487 1487 1487 1487 1487 1487 1488 1488 1487 1487
1468 1469 1470 1471 1472 1472 1473 1473 1474 1475 1476 1478 1478 1479 1480 1480 1481 1482 1483 1483 1483 1484 1484 1484 1485 1484 1484 1484 1484 1484 1483 1483 1483 1482 1482 1482 1482 1482 1482 1483 1483 1483 1482
1466 1466 1466 1467 1468 1469 1470 1470 1471 1472 1473 1474 1475 1476 1477 1478 1478 1478 1479 1480 1480 1480 1480 1480 1480 1481 1481 1480 1480 1480 1480 1479 1479 1478 1478 1478 1478 1478 1478 1478 1479 1478 1478
1463 1463 1464 1465 1465 1466 1467 1467 1468 1469 1470 1472 1473 1473 1474 1475 1475 1476 1476 1477 1477 1477 1477 1477 1477 1477 1477 1476 1476 1476 1476 1475 1475 1475 1475 1475 1475 1475 1475 1475 1475 1474 1474
1460 1460 1461 1461 1463 1464 1465 1465 1466 1467 1468 1469 1470 1471 1471 1472 1472 1473 1473 1474 1474 1474 1474 1474 1474 1474 1473 1473 1473 1473 1472 1472 1472 1472 1472 1472 1472 1472 1471 1471 1470 1470 1470
1458 1458 1458 1459 1461 1461 1462 1464 1464 1465 1466 1467 1467 1468 1468 1469 1469 1470 1470 1471 1471 1471 1471 1470 1470 1470 1470 1470 1470 1470 1470 1470 1470 1470 1469 1469 1469 1469 1468 1468 1467 1467 1466
1455 1456 1457 1458 1458 1459 1460 1461 1462 1463 1464 1464 1465 1466 1466 1467 1467 1467 1467 1467 1468 1468 1467 1466 1466 1467 1467 1467 1467 1467 1467 1467 1467 1467 1467 1467 1466 1466 1465 1465 1464 1464 1463
1454 1454 1455 1456 1457 1457 1458 1459 1459 1461 1462 1462 1463 1463 1464 1464 1464 1464 1464 1464 1464 1465 1465 1464 1464 1465 1465 1465 1465 1465 1465 1465 1465 1464 1464 1464 1463 1463 1462 1461 1460 1460 1459
1452 1452 1453 1454 1455 1455 1456 1456 1457 1458 1459 1459 1460 1461 1461 1461 1461 1461 1461 1461 1461 1461 1462 1462 1462 1463 1463 1463 1463 1463 1462 1462 1462 1462 1461 1461 1460 1460 1459 1458 1457 1456 1455
1450 1451 1452 1452 1453 1453 1454 1454 1455 1456 1457 1458 1458 1458 1459 1459 1459 1459 1459 1459 1459 1459 1460 1460 1460 1460 1460 1460 1460 1460 1460 1460 1459 1459 1458 1458 1457 1456 1455 1454 1453 1452 1451
1448 1449 1450 1450 1451 1452 1452 1453 1453 1454 1455 1455 1456 1456 1456 1457 1457 1457 1457 1457 1457 1457 1458 1458 1457 1457 1457 1457 1457 1457 1457 1457 1457 1456 1455 1455 1454 1453 1452 1450 1449 1448 1447
1447 1448 1448 1449 1450 1451 1452 1452 1452 1452 1453 1454 1454 1454 1455 1455 1456 1456 1456 1455 1455 1455 1456 1455 1455 1455 1454 1454 1454 1454 1454 1453 1453 1452 1452 1451 1450 1449 1448 1447 1446 1445 1444
1446 1447 1448 1449 1449 1450 1450 1451 1451 1452 1452 1453 1453 1453 1453 1453 1454 1454 1454 1454 1454 1453 1453 1452 1452 1452 1452 1451 1451 1451 1450 1450 1449 1448 1447 1446 1446 1445 1443 1443 1442 1441 1440
1446 1447 1448 1449 1449 1449 1449 1450 1451 1451 1451 1451 1451 1452 1451 1451 1452 1452 1452 1451 1451 1451 1450 1449 1449 1449 1448 1448 1448 1447 1446 1446 1445 1444 1444 1443 1442 1441 1440 1439 1438 1438 1437
1446 1447 1448 1448 1448 1449 1449 1450 1450 1450 1450 1450 1450 1450 1450 1450 1450 1449 1449 1449 1448 1448 1447 1447 1446 1445 1445 1444 1444 1443 1442 1442 1441 1440 1439 1439 1438 1437 1436 1436 1435 1435 1434
1447 1447 1447 1448 1448 1448 1449 1449 1449 1449 1449 1449 1449 1449 1449 1448 1448 1447 1447 1447 1446 1445 1444 1444 1443 1442 1441 1440 1440 1439 1439 1438 1437 1436 1435 1434 1433 1432 1432 1432 1432 1431 1431
1447 1447 1447 1447 1448 1448 1448 1448 1448 1448 1448 1448 1448 1448 1448 1447 1447 1446 1446 1445 1444 1443 1442 1441 1440 1439 1438 1437 1437 1436 1436 1435 1434 1432 1431 1430 1429 1429 1428 1428 1428 1428 1428